Location: Newark
(43.0000°N, 1.6781°W)
Time: 02:01:15
(UTC+00:00)

Vanguard 2 Rocket - All Passes

Search period start: 25 September 2022 00:00
Search period end: 05 October 2022 00:00
Orbit: 553 x 3323 km, 32.9° (Epoch: 24 September)

Date Brightness Start Highest point End Pass type
(mag) Time Alt. Az. Time Alt. Az. Time Alt. Az.
25 Sep - 01:12:54 10° SW 01:19:11 23° S 01:23:33 10° ESE night (unlit)
25 Sep - 03:27:02 10° WSW 03:31:46 26° S 03:35:20 10° SE visible
25 Sep - 05:41:42 10° SW 05:43:42 13° SSW 05:45:38 10° S daylight
26 Sep - 00:11:59 10° SSW 00:19:05 22° SSE 00:24:01 10° ESE night (unlit)
26 Sep - 02:26:05 10° WSW 02:32:05 29° S 02:36:13 10° ESE visible
26 Sep - 04:40:48 10° WSW 04:44:12 19° SSW 04:47:06 10° SSE visible
26 Sep - 23:11:12 10° SSW 23:18:45 20° SSE 23:24:10 10° ESE night (unlit)
27 Sep - 01:24:51 10° SW 01:32:13 30° S 01:37:02 10° ESE night (unlit)
27 Sep - 03:39:53 10° WSW 03:44:40 25° SSW 03:48:17 10° SE visible
27 Sep - 22:10:48 10° S 22:18:11 17° SSE 22:23:46 10° ESE visible
28 Sep - 00:23:26 10° SW 00:32:08 30° S 00:37:42 10° ESE night (unlit)
28 Sep - 02:38:42 10° WSW 02:45:02 31° S 02:49:19 10° SE visible
28 Sep - 04:54:21 10° WSW 04:56:58 14° SSW 04:59:16 10° S visible
28 Sep - 21:11:24 10° S 21:17:22 14° SSE 21:22:18 10° SE visible
28 Sep - 23:21:57 10° SW 23:31:47 28° SSE 23:38:10 10° ESE night (unlit)
29 Sep - 01:37:11 10° WSW 01:45:12 35° S 01:50:15 10° ESE night (unlit)
29 Sep - 03:52:57 10° WSW 03:57:30 22° SSW 04:00:58 10° SSE visible
29 Sep - 22:20:38 10° SSW 22:31:10 25° SSE 22:38:18 10° ESE visible
30 Sep - 00:35:24 10° WSW 00:45:08 37° S 00:51:03 10° ESE night (unlit)
30 Sep - 02:51:31 10° WSW 02:57:55 30° SSW 03:02:15 10° SE visible
30 Sep - 21:19:46 10° SSW 21:30:18 22° SSE 21:37:55 10° ESE visible
30 Sep - 23:33:28 10° SW 23:44:46 36° S 23:51:41 10° ESE night (unlit)
01 Oct - 01:49:47 10° WSW 01:58:08 37° S 02:03:19 10° ESE night (unlit)
01 Oct - 04:06:20 10° WSW 04:10:11 17° SSW 04:13:15 10° SSE visible
01 Oct - 20:19:44 10° S 20:29:13 18° SSE 20:36:42 10° ESE visible
01 Oct - 22:31:34 10° SW 22:44:07 34° SSE 22:52:03 10° ESE visible
02 Oct - 00:47:44 10° WSW 00:58:05 41° S 01:04:13 10° ESE night (unlit)
02 Oct - 03:04:30 10° WSW 03:10:42 27° SSW 03:14:57 10° SE visible
02 Oct - 19:21:30 10° SSE 19:28:00 13° SE 19:33:42 10° ESE visible
02 Oct - 21:29:56 10° SSW 21:43:11 30° SSE 21:52:04 10° ESE visible
02 Oct - 23:45:28 10° WSW 23:57:43 43° S 00:04:55 10° ESE visible
03 Oct - 02:02:33 10° WSW 02:10:59 36° SSW 02:16:14 10° SE night (unlit)
03 Oct - 04:20:28 10° WSW 04:22:42 12° SW 04:24:39 10° SSW visible
03 Oct - 20:28:50 10° SSW 20:42:00 26° SSE 20:51:33 10° ESE visible
03 Oct - 22:43:09 10° SW 22:57:02 42° S 23:05:25 10° ESE visible
04 Oct - 01:00:17 10° WSW 01:10:58 43° S 01:17:15 10° ESE night (unlit)
04 Oct - 03:17:43 10° WSW 03:23:19 21° SSW 03:27:19 10° SSE visible
04 Oct - 19:28:36 10° S 19:40:39 21° SSE 19:50:13 10° ESE visible
04 Oct - 21:40:59 10° SW 21:56:01 39° SSE 22:05:37 10° E visible
